Regional Weather Roundup
Issued by NWS

Home | Current Version | Previous Version | Text Only | Print | Product List | Glossary Off
Versions: 1 2 3 4 5 6 7 8 9 10 11 12 13 14 15 16 17 18 19 20 21 22 23 24 25 26 27 28 29 30 31 32 33 34 35 36 37 38 39 40 41 42 43 44 45 46 47 48 49 50

000
ASUS43 KMPX 161510
RWRMN
WEATHER ROUNDUP FOR MINNESOTA
NATIONAL WEATHER SERVICE TWIN CITIES/CHANHASSEN MN
1000 AM CDT MON OCT 16 2017


NOTE: "FAIR" INDICATES FEW OR NO CLOUDS BELOW 12,000 FEET WITH NO
SIGNIFICANT WEATHER AND/OR OBSTRUCTIONS TO VISIBILITY. N/A MEANS
CURRENT SKY AND/OR WEATHER CONDITIONS ARE NOT AVAILABLE.

MNZ060>063-068>070-161600-
   Twin Cities Metro

CITY           SKY/WX    TMP DP  RH WIND       PRES   REMARKS
TWIN CITIES    MOSUNNY   46  38  73 SW6       30.24R
ST PAUL        SUNNY     46  38  73 SW6       30.25R
CRYSTAL        SUNNY     46  37  71 SW6       30.22R
BLAINE         SUNNY     48  39  71 SW5       30.21S
LAKEVILLE      SUNNY     45  37  76 W3        30.24R
EDEN PRAIRIE   SUNNY     43  37  79 SW8       30.23R
SOUTH ST PAUL  SUNNY     46  37  72 SW6       30.23S
LAKE ELMO      FAIR      46  41  81 SW7       30.23S
$$
MNZ001>005-007-008-013>017-022>024-027-028-161600-
   Northwest Minnesota

CITY           SKY/WX    TMP DP  RH WIND       PRES   REMARKS
BEMIDJI        SUNNY     44  34  65 SW10      30.07F
HALLOCK        MOSUNNY   43  34  70 S18G24    29.91F
ROSEAU           N/A     45  37  76 S12       29.96F
WARROAD        CLOUDY    45  36  70 SW8       29.97F
THIEF RVR FALL SUNNY     46  32  58 S20       30.00F
CROOKSTON      SUNNY     45  34  65 S18       30.00F
FOSSTON        SUNNY     45  30  57 S17       30.05F
DETROIT LAKES  SUNNY     46  36  66 S9        30.09F
MOORHEAD       SUNNY     41  34  75 S10       30.07F
PARK RAPIDS    SUNNY     44  38  79 SW6       30.10F
MAHNOMEN       FAIR      44  35  70 S14       30.06F
$$
MNZ006-009>011-018-025>026-161600-
   North Central Minnesota

CITY           SKY/WX    TMP DP  RH WIND       PRES   REMARKS
BAUDETTE       CLOUDY    42  34  73 SW10      29.99F
FLAG ISLAND    CLOUDY    46  34  61 SW15      29.94F
INTL FALLS     MOSUNNY   41  35  79 S5        30.03F
WASKISH        PTSUNNY   45  34  65 S8        30.03F
BIG FORK       SUNNY     45  39  81 S6        30.07S
LONGVILLE      SUNNY     46  37  71 S6        30.10F
GRAND RAPIDS   SUNNY     46  36  68 SW9       30.12S
CRANE LAKE     CLOUDY    37  36  93 S5        30.08S
ORR            MOSUNNY   39  36  87 S5        30.05F
COOK           CLOUDY    43  37  81 SW6       30.08F
WALKER         FAIR      45  34  64 SW10G16   30.09F
$$
MNZ012-019>021-037-161600-
   Northeast Minnesota

CITY           SKY/WX    TMP DP  RH WIND       PRES   REMARKS
DULUTH         MOSUNNY   47  38  71 W13       30.12F
ELY            CLOUDY    39  36  87 SW5       30.09S
HIBBING        SUNNY     38  36  92 SW5       30.11F
EVELETH        SUNNY     39  39 100 SW3       30.11F
DULUTH HARBOR  SUNNY     45  39  81 SW10      30.15F
TWO HARBORS    SUNNY     54  39  58 W10       30.10F
GRAND MARAIS     N/A     48  38  68 W8        30.10F
G MARAIS ARPRT SUNNY     43  32  65 SW7       30.08F
$$
MNZ029>031-032-039>041-046>048-054>057-064-161600-
   West Central Minnesota

CITY           SKY/WX    TMP DP  RH WIND       PRES   REMARKS
FERGUS FALLS   SUNNY     45  36  70 S8        30.13F
WHEATON        SUNNY     48  34  57 S9        30.13F
MORRIS         SUNNY     45  37  76 S8        30.14F
ALEXANDRIA     SUNNY     47  35  63 SW12      30.16F
ELBOW LAKE     FAIR      45  37  75 S8        30.13F
WADENA         SUNNY     43  36  75 SW6       30.12F
GLENWOOD       SUNNY     46  37  71 SW7       30.17S
APPLETON       SUNNY     48  36  61 S8        30.16F
BENSON         SUNNY     45  36  70 SW7       30.19S
ORTONVILLE     SUNNY     46  36  66 N7        30.14F
MADISON        SUNNY     52  39  62 S7        30.16F
WILLMAR        FAIR      46  37  71 CALM      30.21S
$$
MNZ033>034-036-042>043-049>051-058-059-161600-
   Central Minnesota

CITY           SKY/WX    TMP DP  RH WIND       PRES   REMARKS
ST CLOUD       SUNNY     43  39  86 SW7       30.19S
SAUK CENTRE    FAIR      47  37  68 S6        30.17F
PAYNESVILLE    SUNNY     47  38  70 SW3       30.20S
AITKIN         SUNNY     45  36  70 SW7       30.12S
PINE RIVER     SUNNY     43  36  75 SW6       30.15F
BRAINERD       SUNNY     43  37  79 S7        30.15S
STAPLES        SUNNY     45  36  70 SW7       30.13F
LONG PRAIRIE   FAIR      43  36  75 S8        30.17S
LITTLE FALLS   SUNNY     41  32  70 S5        30.17S
LITCHFIELD     SUNNY     46  37  71 CALM      30.21S
BUFFALO        SUNNY     44  37  77 S3        30.22F
MAPLE LAKE     SUNNY     46  39  76 SW3       30.22S
HUTCHINSON     MOSUNNY   46  38  75 SW3       30.23S
$$
MNZ037-044-045-052-053-161600-
   East Central Minnesota

CITY           SKY/WX    TMP DP  RH WIND       PRES   REMARKS
PRINCETON      SUNNY     45  43  93 S3        30.20S
MORA           SUNNY     43  37  81 SW3       30.19S
CAMBRIDGE      SUNNY     46  39  76 S5        30.20S
RUSH CITY      SUNNY     43  38  85 SW5       30.20R
MOOSE LAKE     SUNNY     41  37  87 SW5       30.14S
HINCKLEY       FAIR      43  41  93 S5        30.17S
CLOQUET        SUNNY     45  37  76 SW7       30.13F
MCGREGOR       SUNNY     45  41  87 SW5       30.14S
$$
MNZ071>073-080-081-089-090-097-098-161600-
   Southwest Minnesota

CITY           SKY/WX    TMP DP  RH WIND       PRES   REMARKS
MONTEVIDEO     SUNNY     50  39  66 SW8       30.18F
GRANITE FALLS  SUNNY     49  39  70 S8        30.21F
CANBY          SUNNY     54  34  46 SW14G21   30.17F
MARSHALL       SUNNY     53  34  48 SW15      30.19F
REDWOOD FALLS  SUNNY     48  35  60 S7        30.22S
OLIVIA         SUNNY     46  39  76 S6        30.21S
PIPESTONE      SUNNY     48  37  66 S10       30.21F
WORTHINGTON    SUNNY     51  34  52 S12       30.25F
JACKSON        SUNNY     48  36  61 CALM      30.26S
TRACY          SUNNY     52  37  54 SW12      30.21F
SLAYTON        SUNNY     51  35  55 S10       30.23F
$$
MNZ065>067-074>077-082>085-091>093-161600-
   South Central Minnesota

CITY           SKY/WX    TMP DP  RH WIND       PRES   REMARKS
MANKATO        SUNNY     45  37  73 SW5       30.26
NEW ULM        SUNNY     46  36  66 SW7       30.24S
ST JAMES       SUNNY     48  37  66 S5        30.26S
FAIRMONT       SUNNY     50  37  61 SW8       30.27R
GLENCOE        SUNNY     46  38  73 SW3       30.22S
FARIBAULT      SUNNY     45  37  76 S6        30.25S
OWATONNA       SUNNY     46  37  71 SW7       30.26R
WASECA         SUNNY     45  36  70 SW5       30.27S
ALBERT LEA     SUNNY     48  39  71 S5        30.27S
$$
MNZ078>079-086>088-094>096-161600-
   Southeast Minnesota

CITY           SKY/WX    TMP DP  RH WIND       PRES   REMARKS
ROCHESTER      SUNNY     48  40  73 SW8       30.26S
RED WING       SUNNY     46  37  71 CALM      30.23S
STANTON        SUNNY     46  39  76 SW6       30.23S
DODGE CENTER   SUNNY     45  37  76 SW7       30.25S
WINONA         SUNNY     46  41  81 CALM      30.27S
AUSTIN         SUNNY     45  37  76 SW3       30.26S
PRESTON        SUNNY     46  38  72 SW6       30.27S
$$
ABBREVIATIONS USED IN REMARKS
   TC - TEMPERATURES IN CELSIUS
  WCI - WIND CHILL INDEX
   HX - HEAT INDEX
  VSB - VISIBILITY
$$




USA.gov is the U.S. government's official web portal to all federal, state and local government web resources and services.